QPF
0.00 0.00 0.00 0.00 0.00 0.00 0.00 0.00 0.00 0.00 0.00 0.00 0.00 0.00 0.00 0.00 0.00 0.00 0.00 0.00 0.00 0.00 0.00 0.00 0.00 0.00 0.00 0.00 0.00 0.00 0.00 0.00 0.00 0.00 0.01 0.03 0.00 0.00 0.00 0.00 0.02 0.06 0.08 0.09 0.10
0.00 0.00 0.00 0.00 0.00 0.00 0.00 0.00 0.00 0.00 0.00 0.00 0.00 0.00 0.00 0.00 0.00 0.00 0.00 0.00 0.00 0.00 0.00 0.00 0.00 0.00 0.00 0.00 0.00 0.00 0.00 0.02 0.02 0.03 0.01 0.01 0.02 0.05 0.01 0.01 0.09 0.17 0.15 0.17 0.25
0.00 0.00 0.00 0.00 0.00 0.00 0.00 0.00 0.00 0.00 0.00 0.00 0.00 0.00 0.00 0.00 0.00 0.00 0.00 0.00 0.00 0.00 0.00 0.00 0.00 0.00 0.00 0.00 0.00 0.00 0.00 0.02 0.05 0.09 0.07 0.02 0.03 0.10 0.11 0.02 0.02 0.07 0.12 0.11 0.14
0.00 0.00 0.00 0.00 0.00 0.00 0.00 0.00 0.00 0.00 0.00 0.00 0.00 0.00 0.00 0.00 0.00 0.00 0.00 0.00 0.00 0.00 0.00 0.00 0.00 0.00 0.00 0.00 0.00 0.00 0.00 0.00 0.09 0.15 0.10 0.07 0.02 0.03 0.07 0.05 0.08 0.09 0.12 0.11 0.11
0.00 0.00 0.00 0.00 0.00 0.00 0.00 0.00 0.00 0.00 0.00 0.00 0.00 0.00 0.00 0.00 0.00 0.00 0.00 0.00 0.00 0.00 0.00 0.00 0.00 0.00 0.00 0.00 0.00 0.00 0.00 0.00 0.02 0.03 0.02 0.01 0.01 0.01 0.02 0.03 0.08 0.10 0.08 0.10 0.06
0.00 0.00 0.00 0.00 0.00 0.00 0.00 0.00 0.00 0.00 0.00 0.00 0.00 0.00 0.00 0.00 0.00 0.00 0.00 0.00 0.00 0.00 0.00 0.00 0.00 0.00 0.00 0.00 0.00 0.00 0.00 0.00 0.00 0.00 0.00 0.00 0.00 0.00 0.01 0.02 0.06 0.08 0.06 0.05 0.04
0.00 0.00 0.00 0.00 0.00 0.00 0.00 0.00 0.00 0.00 0.00 0.00 0.00 0.00 0.00 0.00 0.00 0.00 0.00 0.00 0.00 0.00 0.00 0.00 0.00 0.00 0.00 0.00 0.00 0.00 0.01 0.00 0.00 0.00 0.00 0.00 0.00 0.00 0.00 0.02 0.03 0.03 0.02 0.02 0.01
0.00 0.00 0.00 0.00 0.00 0.00 0.00 0.00 0.00 0.00 0.00 0.00 0.00 0.00 0.00 0.00 0.00 0.00 0.00 0.00 0.00 0.00 0.00 0.00 0.00 0.00 0.00 0.00 0.00 0.00 0.00 0.00 0.00 0.00 0.00 0.00 0.00 0.01 0.02 0.06 0.02 0.01 0.01 0.00 0.00
0.00 0.00 0.00 0.00 0.00 0.00 0.00 0.00 0.00 0.00 0.00 0.00 0.00 0.00 0.00 0.00 0.00 0.00 0.00 0.00 0.00 0.00 0.00 0.00 0.00 0.00 0.00 0.00 0.00 0.00 0.00 0.00 0.00 0.00 0.00 0.00 0.02 0.05 0.04 0.06 0.01 0.00 0.00 0.00 0.00
0.00 0.00 0.00 0.00 0.00 0.00 0.00 0.00 0.00 0.00 0.00 0.00 0.00 0.00 0.00 0.00 0.00 0.00 0.00 0.00 0.00 0.00 0.00 0.00 0.00 0.00 0.00 0.00 0.00 0.00 0.00 0.00 0.00 0.00 0.00 0.00 0.02 0.05 0.04 0.02 0.00 0.00 0.00 0.00 0.00
0.00 0.00 0.00 0.00 0.00 0.00 0.00 0.00 0.00 0.00 0.00 0.00 0.00 0.00 0.00 0.00 0.00 0.00 0.00 0.00 0.00 0.00 0.00 0.00 0.00 0.00 0.00 0.00 0.00 0.00 0.00 0.00 0.00 0.00 0.00 0.01 0.02 0.01 0.01 0.01 0.00 0.00 0.00 0.00 0.00
0.00 0.00 0.00 0.00 0.00 0.00 0.00 0.00 0.00 0.00 0.00 0.00 0.00 0.00 0.00 0.00 0.00 0.00 0.00 0.00 0.00 0.00 0.00 0.00 0.00 0.00 0.00 0.00 0.00 0.00 0.00 0.00 0.00 0.00 0.00 0.00 0.00 0.01 0.02 0.01 0.00 0.00 0.00 0.00 0.00
0.00 0.00 0.00 0.00 0.00 0.00 0.00 0.00 0.00 0.00 0.00 0.00 0.00 0.00 0.00 0.00 0.00 0.00 0.00 0.00 0.00 0.00 0.00 0.00 0.00 0.00 0.00 0.00 0.00 0.00 0.00 0.00 0.00 0.00 0.00 0.00 0.00 0.01 0.03 0.02 0.02 0.02 0.03 0.00 0.00
0.00 0.00 0.00 0.00 0.00 0.00 0.00 0.00 0.00 0.00 0.00 0.00 0.00 0.00 0.00 0.00 0.00 0.00 0.00 0.00 0.00 0.00 0.00 0.00 0.00 0.00 0.00 0.00 0.00 0.00 0.00 0.00 0.00 0.00 0.00 0.01 0.01 0.01 0.00 0.01 0.07 0.08 0.09 0.02 0.00
0.00 0.00 0.00 0.00 0.00 0.00 0.00 0.00 0.00 0.00 0.00 0.00 0.00 0.00 0.00 0.00 0.00 0.00 0.00 0.00 0.00 0.00 0.00 0.00 0.00 0.00 0.00 0.00 0.00 0.00 0.00 0.00 0.00 0.00 0.00 0.01 0.01 0.01 0.00 0.01 0.07 0.06 0.02 0.00 0.00
0.00 0.00 0.00 0.00 0.00 0.00 0.00 0.00 0.00 0.00 0.00 0.00 0.00 0.00 0.00 0.00 0.00 0.00 0.00 0.00 0.00 0.00 0.00 0.00 0.00 0.00 0.00 0.00 0.00 0.00 0.00 0.00 0.00 0.00 0.00 0.00 0.01 0.00 0.01 0.04 0.04 0.02 0.00 0.00 0.00
0.00 0.00 0.00 0.00 0.00 0.00 0.00 0.00 0.00 0.00 0.00 0.00 0.00 0.00 0.00 0.00 0.00 0.00 0.00 0.00 0.00 0.00 0.00 0.00 0.00 0.00 0.00 0.00 0.00 0.00 0.00 0.00 0.00 0.00 0.00 0.00 0.00 0.00 0.02 0.01 0.00 0.00 0.00 0.00 0.00
0.00 0.00 0.00 0.00 0.00 0.00 0.00 0.00 0.00 0.00 0.00 0.00 0.00 0.00 0.00 0.00 0.00 0.00 0.00 0.00 0.00 0.00 0.00 0.00 0.00 0.00 0.00 0.00 0.00 0.00 0.00 0.00 0.00 0.00 0.00 0.00 0.00 0.01 0.02 0.02 0.01 0.00 0.00 0.00 0.00
0.00 0.00 0.00 0.00 0.00 0.00 0.00 0.00 0.00 0.00 0.00 0.00 0.00 0.00 0.00 0.00 0.00 0.00 0.00 0.00 0.00 0.00 0.00 0.00 0.00 0.00 0.00 0.00 0.00 0.00 0.00 0.00 0.00 0.00 0.00 0.00 0.00 0.01 0.04 0.02 0.00 0.00 0.00 0.00 0.00
0.00 0.00 0.00 0.00 0.00 0.00 0.00 0.00 0.00 0.00 0.00 0.00 0.00 0.00 0.00 0.00 0.00 0.00 0.00 0.00 0.00 0.00 0.00 0.00 0.00 0.00 0.00 0.00 0.00 0.00 0.00 0.00 0.00 0.00 0.00 0.00 0.00 0.00 0.01 0.00 0.00 0.00 0.00 0.00 0.00
0.00 0.00 0.00 0.00 0.00 0.00 0.00 0.00 0.00 0.00 0.00 0.00 0.00 0.00 0.00 0.00 0.00 0.00 0.00 0.00 0.00 0.00 0.00 0.00 0.00 0.00 0.00 0.00 0.00 0.00 0.00 0.00 0.00 0.00 0.00 0.00 0.00 0.00 0.00 0.00 0.00 0.00 0.00 0.00 0.00
0.00 0.00 0.00 0.00 0.00 0.00 0.00 0.00 0.00 0.00 0.00 0.00 0.00 0.00 0.00 0.00 0.00 0.00 0.00 0.00 0.00 0.00 0.00 0.00 0.00 0.00 0.00 0.00 0.00 0.00 0.00 0.00 0.00 0.00 0.00 0.00 0.00 0.00 0.00 0.00 0.00 0.00 0.00 0.00 0.00
0.00 0.00 0.00 0.00 0.00 0.00 0.00 0.00 0.00 0.00 0.00 0.00 0.00 0.00 0.00 0.00 0.00 0.00 0.00 0.00 0.00 0.00 0.00 0.00 0.00 0.00 0.00 0.00 0.00 0.00 0.00 0.00 0.00 0.00 0.00 0.00 0.00 0.00 0.00 0.00 0.00 0.00 0.00 0.00 0.00
0.00 0.00 0.00 0.00 0.00 0.00 0.00 0.00 0.00 0.00 0.00 0.00 0.00 0.00 0.00 0.00 0.00 0.00 0.00 0.00 0.00 0.00 0.00 0.00 0.00 0.00 0.00 0.00 0.00 0.00 0.00 0.00 0.00 0.00 0.00 0.00 0.00 0.00 0.00 0.00 0.00 0.00 0.00 0.00 0.00
0.00 0.00 0.00 0.00 0.00 0.00 0.00 0.00 0.00 0.00 0.00 0.00 0.00 0.00 0.00 0.00 0.00 0.00 0.00 0.00 0.00 0.00 0.00 0.00 0.00 0.00 0.00 0.00 0.00 0.00 0.00 0.00 0.00 0.00 0.00 0.00 0.00 0.00 0.00 0.00 0.00 0.00 0.00 0.00 0.00
0.00 0.00 0.00 0.00 0.00 0.00 0.00 0.00 0.00 0.00 0.00 0.00 0.00 0.00 0.00 0.00 0.00 0.00 0.00 0.00 0.00 0.00 0.00 0.00 0.00 0.00 0.00 0.00 0.00 0.00 0.00 0.00 0.00 0.00 0.00 0.00 0.00 0.00 0.00 0.00 0.00 0.00 0.00 0.00 0.00
0.00 0.00 0.00 0.00 0.00 0.00 0.00 0.00 0.00 0.00 0.00 0.00 0.00 0.00 0.00 0.00 0.00 0.00 0.00 0.00 0.00 0.00 0.00 0.00 0.00 0.00 0.01 0.00 0.01 0.01 0.00 0.00 0.00 0.00 0.00 0.00 0.00 0.00 0.00 0.00 0.00 0.00 0.00 0.00 0.00
MSLP
1017.32 1017.10 1016.97 1016.85 1016.52 1016.51 1016.18 1015.94 1015.84 1015.72 1015.62 1015.38 1015.05 1014.61 1014.17 1013.86 1012.87 1012.47 1011.20 1009.19 1009.23 1009.20 1009.27 1009.24 1009.41 1009.29 1009.61 1009.75 1009.78 1010.15 1012.63 1015.34 1016.59 1017.04 1018.21 1017.56 1017.79 1017.98 1017.58 1017.79 1018.46 1019.41 1019.66 1020.63 1021.31
1017.01 1016.88 1016.71 1016.53 1016.32 1016.18 1015.88 1015.83 1015.75 1015.59 1015.48 1015.31 1014.89 1014.43 1014.06 1013.66 1012.95 1011.25 1008.42 1008.45 1008.73 1009.03 1009.47 1009.27 1009.28 1009.33 1009.45 1009.08 1009.33 1010.54 1012.80 1014.98 1015.36 1015.79 1016.89 1018.08 1018.96 1018.97 1018.95 1018.92 1020.05 1020.54 1021.03 1021.35 1021.85
1016.91 1016.82 1016.64 1016.27 1015.97 1015.78 1015.80 1015.71 1015.52 1015.41 1015.41 1015.13 1014.72 1014.28 1013.93 1013.50 1012.60 1009.43 1007.72 1008.20 1008.48 1009.11 1009.17 1009.03 1008.98 1008.98 1009.20 1009.42 1010.04 1011.07 1013.15 1014.45 1016.13 1015.60 1016.70 1018.50 1019.60 1019.97 1020.45 1021.10 1021.52 1021.76 1021.97 1022.18 1022.54
1016.82 1016.56 1016.17 1015.80 1015.77 1015.72 1015.62 1015.43 1015.35 1015.30 1015.26 1014.92 1014.58 1014.11 1013.59 1013.27 1011.51 1008.26 1007.87 1008.29 1008.69 1008.90 1008.92 1008.86 1009.04 1009.31 1009.48 1010.70 1011.36 1013.14 1014.72 1014.96 1016.16 1016.62 1017.38 1018.75 1019.94 1020.98 1021.36 1022.48 1022.79 1022.94 1023.34 1023.48 1023.58
1016.57 1016.26 1015.89 1015.71 1015.75 1015.53 1015.47 1015.29 1015.17 1015.23 1015.03 1014.72 1014.45 1013.93 1013.22 1012.41 1010.09 1007.70 1007.97 1008.41 1008.65 1008.75 1008.83 1009.01 1009.22 1009.53 1010.52 1012.00 1012.96 1013.59 1015.68 1015.77 1016.02 1016.74 1017.62 1018.50 1020.08 1021.32 1022.42 1023.20 1023.50 1023.82 1023.42 1023.97 1024.00
1016.44 1016.05 1015.83 1015.70 1015.60 1015.41 1015.26 1015.13 1015.06 1015.03 1014.80 1014.54 1014.34 1013.97 1013.37 1011.24 1007.87 1007.72 1007.88 1008.34 1008.46 1008.64 1008.57 1008.76 1009.00 1009.19 1010.50 1011.30 1011.34 1013.75 1014.25 1015.48 1016.13 1017.02 1018.52 1019.46 1020.60 1021.14 1023.19 1023.63 1024.17 1024.61 1024.78 1024.80 1024.83
1016.18 1016.01 1015.70 1015.63 1015.44 1015.20 1015.05 1014.96 1014.85 1014.71 1014.56 1014.37 1014.18 1013.68 1012.90 1009.55 1007.74 1007.82 1007.77 1007.76 1007.66 1008.07 1008.26 1007.74 1007.99 1008.70 1009.98 1011.11 1011.71 1012.78 1014.32 1015.93 1017.23 1017.59 1018.56 1018.77 1021.12 1022.36 1023.80 1024.28 1024.58 1025.38 1026.02 1025.81 1025.37
1016.12 1015.83 1015.60 1015.44 1015.17 1015.02 1014.84 1014.72 1014.54 1014.42 1014.29 1014.14 1013.98 1013.56 1011.53 1007.98 1007.84 1007.94 1007.78 1007.36 1007.13 1007.27 1007.54 1007.01 1007.23 1008.32 1009.38 1010.29 1011.69 1012.40 1013.30 1015.00 1016.31 1016.36 1018.36 1019.86 1022.66 1023.84 1024.26 1024.56 1025.52 1025.39 1025.67 1026.18 1026.11
1015.99 1015.63 1015.43 1015.15 1015.00 1014.76 1014.52 1014.42 1014.24 1014.08 1013.99 1013.98 1013.74 1013.06 1010.46 1007.69 1007.64 1007.16 1007.28 1007.36 1007.25 1006.91 1006.84 1007.03 1007.37 1008.66 1009.40 1010.61 1012.13 1012.94 1013.90 1014.76 1015.56 1016.77 1018.32 1019.29 1022.92 1024.70 1023.64 1023.22 1024.59 1024.98 1025.71 1026.56 1026.67
1015.81 1015.46 1015.28 1014.96 1014.74 1014.38 1014.20 1014.20 1013.81 1013.61 1013.79 1013.52 1013.02 1012.62 1009.57 1007.78 1006.98 1006.84 1006.90 1007.14 1007.62 1007.65 1007.71 1007.71 1008.58 1009.23 1010.34 1011.17 1012.15 1013.24 1014.09 1014.89 1016.06 1018.02 1019.35 1020.89 1023.05 1024.99 1024.27 1024.56 1025.33 1025.31 1025.62 1026.08 1026.35
1015.61 1015.36 1015.04 1014.74 1014.44 1014.32 1013.71 1013.91 1013.85 1013.46 1012.95 1011.63 1010.78 1009.86 1008.50 1007.07 1006.62 1006.93 1006.80 1007.21 1007.54 1007.82 1008.56 1008.71 1009.53 1010.15 1009.72 1010.21 1010.84 1012.46 1013.63 1014.79 1016.92 1018.67 1020.63 1022.65 1023.87 1024.51 1025.24 1025.07 1025.52 1025.85 1025.85 1026.18 1026.25
1015.42 1015.15 1014.75 1014.52 1014.37 1014.10 1013.85 1013.20 1011.41 1011.12 1010.91 1009.57 1009.17 1008.75 1007.61 1007.35 1006.92 1006.84 1006.75 1007.60 1007.79 1008.30 1008.60 1009.47 1009.58 1009.27 1009.69 1009.62 1010.83 1012.20 1013.69 1015.88 1018.66 1019.43 1020.66 1023.21 1024.40 1025.08 1025.23 1025.73 1025.93 1026.01 1026.22 1026.22 1026.21
1015.06 1014.77 1014.64 1014.47 1014.28 1013.92 1013.18 1011.78 1009.69 1010.37 1010.57 1008.55 1007.71 1007.29 1006.62 1006.67 1006.50 1006.34 1006.80 1007.18 1007.76 1008.15 1008.59 1009.29 1008.58 1008.65 1009.04 1009.88 1010.80 1012.01 1012.89 1013.96 1017.08 1019.99 1021.58 1022.21 1024.45 1025.01 1025.32 1025.46 1025.65 1025.64 1025.85 1026.20 1026.39
1014.74 1014.53 1014.41 1014.21 1014.46 1013.02 1011.99 1009.69 1009.85 1010.47 1010.63 1008.90 1007.18 1005.93 1005.74 1006.03 1006.23 1005.59 1006.05 1006.96 1007.47 1007.90 1007.96 1009.06 1008.66 1008.89 1009.43 1009.86 1010.43 1011.48 1011.93 1012.89 1015.49 1017.82 1020.84 1021.90 1024.56 1025.31 1025.58 1025.44 1025.64 1025.99 1026.30 1026.48 1026.22
1014.55 1014.29 1014.09 1014.06 1013.58 1012.47 1010.28 1009.87 1009.94 1010.27 1010.51 1008.31 1006.69 1005.08 1005.57 1006.06 1006.06 1005.63 1005.52 1006.26 1007.37 1008.13 1008.45 1010.05 1009.61 1009.39 1009.79 1010.24 1010.36 1011.53 1011.85 1012.88 1014.49 1016.88 1019.12 1021.83 1023.08 1024.97 1025.45 1025.44 1025.93 1026.21 1026.45 1026.30 1026.33
1014.26 1014.02 1013.89 1013.68 1013.41 1010.98 1010.20 1009.80 1009.81 1010.77 1009.92 1008.32 1006.56 1005.96 1006.17 1006.25 1006.35 1005.95 1006.18 1006.46 1007.43 1008.77 1009.62 1009.99 1009.64 1009.75 1009.93 1010.26 1010.82 1011.41 1012.16 1013.62 1015.46 1017.70 1020.78 1022.38 1022.89 1024.73 1024.93 1025.11 1025.75 1026.19 1026.44 1026.40 1026.54
1013.87 1013.75 1013.75 1012.74 1011.67 1010.32 1010.27 1010.35 1011.12 1010.96 1009.86 1008.65 1007.21 1006.77 1006.84 1007.10 1006.87 1007.04 1008.04 1008.63 1009.16 1010.04 1010.93 1010.74 1010.46 1010.10 1010.00 1010.52 1011.15 1011.86 1013.66 1015.99 1017.85 1019.81 1022.44 1022.72 1023.40 1024.36 1024.38 1024.44 1025.10 1025.81 1026.37 1026.63 1026.74
1013.54 1013.45 1012.58 1011.64 1010.47 1010.91 1011.34 1011.54 1011.30 1010.39 1009.42 1008.19 1007.49 1007.44 1007.72 1007.91 1008.65 1008.74 1009.60 1010.56 1010.62 1010.97 1011.67 1011.94 1011.34 1010.88 1010.94 1011.30 1012.05 1013.28 1014.80 1016.78 1018.64 1020.55 1022.67 1023.03 1024.05 1024.51 1024.47 1024.79 1025.43 1026.04 1026.56 1027.21 1027.72
1013.06 1013.01 1012.57 1010.37 1010.36 1011.22 1012.19 1012.33 1011.20 1009.83 1008.95 1008.11 1007.66 1008.16 1008.60 1008.55 1009.08 1009.98 1011.19 1011.93 1012.10 1012.04 1012.56 1012.79 1012.48 1011.83 1011.57 1011.81 1012.42 1013.96 1015.10 1016.26 1018.10 1020.58 1022.60 1024.06 1024.45 1024.24 1024.71 1025.34 1025.78 1026.58 1027.18 1028.04 1028.31
1012.86 1012.76 1011.85 1009.33 1010.17 1011.61 1012.81 1012.26 1010.66 1009.33 1008.80 1008.36 1008.95 1009.22 1009.62 1010.00 1010.36 1010.98 1012.10 1012.98 1012.86 1012.79 1012.72 1013.64 1013.40 1013.06 1012.53 1012.57 1013.54 1014.30 1015.35 1016.82 1018.78 1021.18 1023.50 1024.71 1024.78 1024.62 1024.94 1025.45 1026.10 1026.70 1027.64 1028.42 1028.87
1012.81 1012.62 1010.29 1009.48 1010.48 1012.28 1013.07 1011.81 1010.18 1008.72 1008.33 1009.11 1009.70 1010.39 1010.92 1010.96 1011.37 1012.27 1013.25 1013.53 1013.46 1013.56 1013.51 1014.27 1014.58 1014.72 1013.88 1014.51 1014.71 1015.23 1016.27 1017.74 1019.40 1021.47 1022.99 1024.53 1024.63 1024.14 1024.64 1025.42 1026.15 1026.79 1027.57 1028.57 1029.12
1013.22 1012.83 1010.37 1010.03 1011.73 1012.65 1012.59 1011.02 1009.87 1009.39 1008.96 1009.67 1010.16 1010.82 1011.46 1011.78 1012.44 1013.11 1013.67 1013.98 1013.76 1013.99 1014.75 1015.35 1015.94 1016.34 1015.91 1015.46 1015.22 1015.74 1016.94 1018.14 1020.20 1022.33 1023.50 1024.14 1024.63 1023.62 1024.44 1025.46 1026.31 1027.18 1028.06 1028.75 1029.30
1014.22 1013.13 1010.75 1010.56 1012.58 1012.95 1011.83 1010.98 1010.09 1010.04 1010.38 1010.64 1011.27 1011.61 1011.85 1012.88 1013.63 1013.81 1014.35 1014.62 1014.35 1014.83 1015.52 1015.99 1017.22 1017.50 1016.91 1016.34 1016.07 1016.56 1017.36 1018.58 1020.12 1021.75 1023.57 1024.35 1024.93 1024.43 1024.93 1025.93 1026.60 1027.54 1028.42 1029.04 1029.52
1014.52 1014.22 1013.06 1012.58 1012.86 1012.76 1012.28 1011.48 1010.96 1010.59 1011.08 1011.63 1012.21 1012.38 1013.32 1014.15 1014.03 1014.93 1015.15 1015.00 1014.87 1015.14 1015.77 1016.37 1017.74 1018.13 1018.10 1017.27 1017.20 1017.91 1018.53 1019.17 1020.46 1022.71 1023.79 1024.22 1024.78 1025.41 1025.72 1026.40 1027.20 1028.10 1028.84 1029.30 1029.72
1014.86 1015.42 1014.83 1014.87 1013.70 1013.26 1012.38 1012.16 1011.97 1012.07 1012.40 1012.50 1013.62 1013.83 1014.45 1015.63 1015.58 1015.70 1015.46 1015.40 1015.54 1015.70 1016.25 1017.27 1018.50 1018.49 1018.40 1018.30 1018.29 1018.92 1019.76 1020.16 1021.05 1022.56 1023.67 1024.59 1025.04 1025.42 1025.75 1026.60 1027.47 1028.35 1029.16 1029.49 1029.80
1015.91 1016.08 1015.45 1015.03 1014.19 1013.71 1013.49 1013.69 1013.43 1013.72 1013.84 1014.63 1014.92 1015.32 1015.17 1016.12 1016.28 1016.17 1015.92 1015.94 1016.21 1016.60 1017.15 1018.00 1018.92 1019.19 1019.87 1019.55 1019.59 1020.31 1020.87 1021.30 1022.24 1023.07 1023.95 1024.74 1025.55 1025.94 1026.72 1027.43 1028.32 1029.04 1029.32 1029.53 1029.72
1016.65 1016.32 1016.30 1016.33 1015.28 1014.75 1014.78 1014.33 1014.59 1014.19 1015.53 1015.24 1015.37 1015.54 1015.88 1016.20 1016.11 1015.91 1016.12 1016.42 1016.69 1017.38 1018.24 1019.03 1019.85 1020.53 1021.36 1020.93 1020.70 1021.96 1022.57 1022.76 1023.34 1023.85 1024.37 1025.01 1025.84 1026.58 1027.59 1028.20 1028.91 1029.28 1029.43 1029.52 1029.69
Thickness
5760 5762 5762 5763 5765 5764 5767 5769 5769 5768 5767 5768 5770 5773 5777 5781 5790 5794 5797 5818 5821 5824 5825 5824 5820 5821 5817 5808 5812 5809 5752 5725 5722 5724 5706 5732 5729 5737 5747 5737 5727 5723 5721 5716 5709
5762 5763 5763 5763 5765 5766 5767 5768 5767 5766 5766 5767 5770 5774 5777 5781 5787 5794 5827 5828 5827 5827 5820 5815 5810 5817 5806 5810 5810 5784 5748 5742 5756 5752 5734 5728 5724 5726 5724 5725 5714 5712 5711 5712 5705
5761 5762 5762 5765 5767 5768 5767 5767 5767 5766 5766 5768 5771 5775 5778 5783 5784 5804 5834 5831 5830 5827 5825 5823 5822 5817 5805 5805 5793 5786 5759 5762 5749 5756 5745 5725 5715 5720 5711 5702 5703 5699 5699 5699 5695
5760 5762 5765 5768 5768 5767 5767 5767 5767 5767 5767 5769 5773 5777 5782 5784 5764 5822 5833 5832 5829 5827 5823 5816 5811 5801 5789 5771 5783 5756 5758 5760 5754 5754 5746 5730 5722 5708 5706 5694 5695 5695 5689 5687 5684
5761 5763 5766 5768 5766 5766 5767 5768 5768 5768 5769 5772 5775 5780 5785 5780 5789 5834 5834 5832 5830 5827 5816 5810 5801 5797 5772 5771 5765 5754 5746 5754 5759 5750 5736 5733 5715 5708 5697 5694 5691 5687 5693 5685 5683
5760 5763 5765 5766 5766 5767 5769 5769 5770 5771 5772 5775 5777 5780 5782 5771 5832 5837 5837 5833 5830 5826 5821 5816 5807 5809 5787 5778 5779 5767 5764 5754 5753 5742 5727 5714 5708 5712 5693 5692 5684 5677 5674 5674 5672
5760 5762 5765 5765 5767 5768 5770 5771 5772 5774 5775 5778 5780 5784 5780 5791 5835 5838 5839 5836 5839 5833 5822 5833 5829 5812 5799 5781 5789 5781 5756 5748 5740 5738 5728 5731 5701 5692 5684 5682 5674 5665 5657 5659 5663
5759 5762 5764 5766 5768 5770 5772 5774 5775 5777 5779 5781 5782 5784 5781 5834 5837 5836 5839 5837 5843 5842 5836 5842 5840 5817 5803 5803 5787 5777 5763 5743 5740 5747 5730 5715 5670 5674 5674 5668 5654 5660 5658 5653 5651
5758 5762 5765 5767 5770 5772 5775 5777 5779 5781 5782 5783 5784 5784 5783 5838 5828 5841 5843 5828 5835 5840 5841 5843 5833 5806 5804 5779 5755 5751 5737 5742 5741 5742 5721 5714 5673 5658 5658 5677 5663 5658 5649 5640 5639
5758 5762 5765 5769 5771 5775 5778 5779 5783 5784 5783 5786 5789 5777 5806 5812 5835 5841 5845 5838 5823 5823 5818 5816 5797 5782 5771 5759 5731 5737 5737 5736 5728 5723 5707 5690 5670 5655 5657 5657 5651 5647 5644 5642 5637
5759 5762 5767 5770 5773 5775 5782 5782 5778 5776 5783 5784 5794 5796 5808 5832 5844 5832 5842 5830 5824 5811 5785 5798 5775 5758 5774 5776 5779 5756 5745 5739 5721 5713 5686 5666 5658 5657 5653 5653 5649 5644 5643 5635 5633
5759 5763 5768 5771 5773 5776 5780 5778 5790 5797 5774 5805 5807 5809 5824 5826 5810 5823 5839 5806 5802 5781 5793 5776 5760 5784 5790 5788 5771 5758 5739 5718 5694 5701 5689 5664 5649 5648 5649 5644 5643 5638 5632 5630 5629
5762 5765 5769 5771 5774 5778 5782 5789 5815 5809 5773 5798 5815 5813 5820 5825 5810 5813 5825 5813 5796 5784 5781 5763 5784 5801 5793 5778 5765 5753 5747 5751 5704 5684 5679 5671 5646 5641 5642 5642 5641 5639 5630 5628 5621
5763 5767 5769 5772 5772 5783 5785 5813 5812 5807 5744 5773 5799 5816 5827 5827 5804 5838 5835 5817 5802 5785 5791 5778 5795 5787 5775 5771 5767 5741 5766 5763 5739 5705 5662 5673 5632 5634 5634 5634 5635 5629 5621 5617 5615
5764 5767 5770 5773 5777 5779 5803 5811 5813 5797 5707 5787 5800 5844 5830 5810 5813 5820 5844 5824 5793 5787 5790 5766 5774 5773 5764 5765 5772 5753 5769 5761 5750 5716 5692 5667 5646 5634 5632 5631 5627 5622 5615 5614 5608
5766 5769 5771 5775 5777 5799 5808 5813 5806 5740 5717 5769 5803 5801 5800 5806 5808 5822 5819 5827 5816 5789 5782 5777 5792 5780 5775 5776 5767 5766 5752 5739 5722 5696 5650 5651 5648 5627 5628 5630 5624 5617 5612 5608 5599
5768 5771 5772 5781 5783 5805 5808 5795 5736 5718 5772 5768 5782 5798 5793 5788 5801 5804 5784 5773 5765 5750 5743 5761 5763 5778 5780 5759 5757 5745 5715 5672 5672 5647 5633 5652 5636 5625 5639 5641 5628 5617 5609 5604 5600
5770 5773 5781 5789 5802 5799 5791 5760 5727 5754 5763 5793 5796 5793 5781 5787 5776 5781 5768 5751 5769 5762 5739 5726 5718 5759 5765 5753 5737 5727 5708 5667 5657 5645 5629 5646 5624 5623 5638 5633 5625 5617 5608 5598 5584
5773 5776 5779 5799 5801 5795 5764 5728 5738 5761 5781 5783 5791 5770 5769 5782 5778 5768 5752 5743 5754 5759 5731 5722 5724 5759 5758 5748 5742 5716 5700 5712 5678 5656 5630 5624 5630 5641 5633 5624 5618 5606 5601 5582 5574
5773 5771 5775 5806 5802 5782 5746 5734 5761 5787 5788 5786 5757 5765 5750 5760 5760 5753 5745 5748 5750 5755 5758 5734 5716 5737 5745 5740 5728 5714 5718 5677 5660 5642 5614 5612 5615 5620 5621 5617 5609 5602 5589 5576 5567
5770 5757 5790 5805 5796 5756 5731 5743 5773 5798 5796 5772 5761 5752 5752 5754 5755 5743 5737 5744 5748 5746 5745 5731 5714 5706 5722 5704 5695 5692 5686 5679 5664 5645 5620 5610 5615 5630 5624 5615 5604 5595 5590 5571 5563
5761 5742 5792 5798 5746 5736 5738 5764 5784 5780 5787 5775 5770 5763 5755 5753 5743 5735 5729 5734 5746 5743 5719 5721 5695 5677 5694 5709 5710 5699 5685 5668 5637 5640 5621 5611 5613 5640 5626 5613 5599 5593 5578 5567 5560
5747 5750 5788 5788 5730 5733 5753 5769 5775 5769 5766 5765 5757 5761 5761 5741 5722 5728 5724 5733 5738 5730 5715 5711 5677 5653 5668 5682 5692 5683 5685 5673 5653 5637 5622 5606 5604 5629 5622 5606 5597 5583 5572 5563 5553
5749 5734 5753 5760 5753 5752 5749 5757 5756 5772 5762 5760 5754 5756 5740 5726 5731 5714 5713 5726 5733 5729 5718 5707 5677 5666 5649 5668 5676 5664 5667 5666 5648 5620 5619 5615 5613 5609 5606 5599 5587 5574 5563 5555 5546
5747 5736 5745 5729 5742 5747 5753 5751 5743 5741 5753 5751 5738 5740 5728 5702 5705 5702 5713 5714 5720 5719 5715 5695 5668 5675 5674 5676 5673 5664 5655 5655 5646 5636 5615 5616 5608 5605 5603 5594 5584 5570 5559 5553 5544
5734 5729 5737 5734 5742 5745 5737 5731 5731 5734 5736 5725 5721 5720 5717 5701 5703 5696 5704 5702 5699 5706 5701 5687 5663 5671 5656 5665 5661 5647 5647 5648 5641 5633 5623 5615 5608 5605 5597 5587 5575 5564 5557 5549 5541
5733 5736 5730 5722 5729 5731 5726 5734 5729 5735 5727 5728 5720 5715 5706 5708 5715 5717 5712 5706 5703 5691 5682 5674 5660 5646 5632 5653 5647 5620 5629 5630 5627 5626 5621 5605 5607 5599 5583 5576 5564 5556 5551 5544 5534